sat.trackr.live / text

‹ back to catalog

STARLINK-36295

NORAD 68667 · 2026-077F

PAYLOAD ACTIVE UNKNOWN

§ Identity

Operator
Country
US
Launch date
2026-04-11
Launch site
AFWTR
Launch vehicle
Mass (kg)
RCS (m²)

Purposes: comms

External: N2YO · Heavens-Above · Gunter

§ Orbital elements

Epoch: 2026-05-25T03:32:56.061312Z

Period
93.91 min
Inclination
97.2839°
Eccentricity
0.0000911
Mean motion
15.33452740 rev/d
Perigee alt
464.9 km
Apogee alt
466.1 km
Semi-major
6,843.7 km
B*
7.3773e-4
RAAN
16.6947°
Arg perigee
92.3904°
Mean anomaly
267.7443°
Rev number
687

§ Raw data

STARLINK-362951 68667U 26077F   26145.14787108  .00023823  00000+0  73773-3 0  99962 68667  97.2839  16.6947 0000911  92.3904 267.7443 15.33452740  6872

JSON: /api/v1/satellites/68667 · /tle

For live sub-satellite position, see the globe view (requires WebGL).

§ Visibility from observer

Set your observer location to see the next 7 days of passes ≥ 10°. The values pass through the URL so the page stays shareable.

No JS? Fill the form by hand. The geolocation button needs JavaScript.